Vertical_Velocity
1 2 -3 8 6 -3 4 1 -5 5 4 -10 -1 -1 -9 -10 -6 6 6 -6 -8 -4
2 4 3 4 -0 4 -4 3 4 8 4 9 -3 5 -3 2 -4 -1 -7 -12 -5 1
2 5 -5 5 0 2 -0 -6 2 -1 1 3 2 -2 -5 6 3 1 1 -1 -1 -1
-0 2 -2 0 1 4 3 1 3 -2 7 0 -1 -6 -4 0 1 -1 -5 0 -1 1
-5 -8 -3 -3 -0 -1 3 -2 1 -4 5 1 -1 0 0 -4 -1 -1 0 -0 -2 2
-2 -6 1 2 -0 3 -4 1 3 6 3 1 2 -2 5 -1 1 3 -6 -1 4 -6
-4 -3 -0 3 2 2 -2 -4 0 1 6 4 5 4 0 0 -3 -3 1 0 -6 3
-1 -2 -2 -4 -0 6 9 2 -0 -2 4 6 -0 0 -3 1 3 3 -4 0 1 -6
-3 -3 -6 -4 -2 3 2 -4 1 -4 -4 4 6 1 6 0 -4 -3 1 -8 -8 1
1 1 -3 -2 -1 -3 -2 -3 -2 6 -1 -4 0 6 5 6 -2 0 2 7 4 -4
1 3 2 4 5 -3 1 -1 3 3 9 -5 -1 1 1 4 6 7 4 -2 -7 0
-5 -5 -4 -3 5 2 2 4 5 3 -5 -2 -1 -3 13 4 2 -7 -6 0 1 -0
-2 -3 -2 -3 -4 -2 -4 1 2 6 5 -3 2 -3 -5 4 1 7 1 -1 -0 11
2 3 -0 -1 -4 -5 -5 -1 5 4 -1 4 -2 -7 2 6 2 7 7 -2 -5 2
Height
3090 3091 3093 3094 3094 3093 3095 3096 3097 3097 3097 3098 3098 3099 3099 3098 3101 3099 3101 3103 3104 3107
3087 3088 3089 3090 3089 3089 3091 3092 3092 3092 3092 3092 3090 3092 3093 3093 3094 3095 3095 3097 3099 3100
3082 3082 3083 3083 3084 3085 3085 3087 3087 3087 3086 3085 3085 3087 3087 3087 3087 3087 3087 3090 3093 3095
3077 3077 3077 3079 3079 3079 3078 3079 3079 3079 3078 3078 3079 3080 3081 3082 3082 3082 3084 3085 3088 3088
3072 3073 3073 3073 3072 3071 3070 3071 3071 3072 3072 3072 3073 3073 3074 3076 3077 3077 3079 3080 3080 3081
3066 3067 3068 3066 3067 3065 3064 3065 3063 3065 3065 3066 3067 3067 3068 3070 3071 3073 3073 3073 3072 3074
3059 3061 3060 3059 3058 3057 3057 3058 3057 3057 3058 3059 3059 3060 3061 3064 3065 3066 3066 3065 3063 3064
3050 3049 3048 3048 3048 3048 3048 3049 3050 3050 3051 3051 3052 3052 3054 3054 3057 3055 3059 3055 3055 3055
3042 3041 3039 3039 3039 3038 3038 3039 3040 3039 3041 3043 3043 3043 3045 3044 3046 3048 3047 3047 3049 3046
3032 3031 3030 3030 3029 3028 3028 3029 3029 3030 3028 3032 3032 3033 3033 3034 3035 3037 3037 3037 3037 3037
3023 3021 3021 3019 3017 3018 3018 3018 3018 3018 3018 3019 3021 3022 3022 3025 3025 3027 3027 3028 3029 3030
3015 3013 3011 3010 3008 3007 3008 3009 3009 3009 3008 3010 3011 3013 3013 3015 3016 3018 3020 3021 3022 3022
3004 3003 3002 3000 2999 2998 2999 2999 2999 2997 2998 3000 3000 3003 3007 3007 3009 3010 3011 3014 3013 3013
2996 2994 2992 2991 2989 2989 2989 2988 2988 2987 2989 2990 2991 2994 2998 2998 3001 3001 3001 3003 3005 3004